Osoyoos, British Columbia

9:22 PM PST on January 22, 2017 (GMT -0800)
Osoyoos

Weather History for 71215 - May, 2013

Change the Weather History Date:

Thursday, May 16, 2013

  Actual Average Record
Temperature  
Mean Temperature 63 °F -  
Max Temperature 73 °F - - ()
Min Temperature 53 °F - - ()
Degree Days  
Heating Degree Days 2    
Growing Degree Days 13 (Base 50)    
Moisture  
Dew Point 46 °F    
Average Humidity 59    
Maximum Humidity 91    
Minimum Humidity 25    
Precipitation  
Precipitation 0.03 in - - ()
Sea Level Pressure  
Sea Level Pressure 29.89 in    
Wind  
Wind Speed 4 mph ()    
Max Wind Speed 7 mph    
Max Gust Speed -    
T = Trace of Precipitation, MM = Missing Value Source: Averaged Metar Reports

Daily Weather History Graph

Daily Weather History Graph

Search for Another Location

Airport or City:

Trip Planner

Search our weather history database for the weather conditions in past years. The results will help you decide how hot, cold, wet, or windy it might be!

Date:

Astronomy

May. 16, 2013 Rise Set
Actual Time 5:13 AM PDT 8:35 PM PDT
Civil Twilight 4:35 AM PDT 9:14 PM PDT
Nautical Twilight 3:44 AM PDT 10:05 PM PDT
Astronomical Twilight 2:37 AM PDT 11:13 PM PDT
Moon 11:02 AM PDT (5/16) 12:50 AM PDT (5/16)
Length of Visible Light 16h 38m
Length of Day
15h 21m
Waxing Crescent, 36% of the Moon is Illuminated
May 16
Waxing Crescent
May 17
First Quarter
May 24
Full
May 31
Last Quarter
Jun 8
New

Hourly Weather History & Observations

Time (PDT) Temp. Dew Point Humidity Pressure Visibility Wind Dir Wind Speed Gust Speed Precip Events Conditions
12:00 AM 59.7 °F 46.6 °F 62% 29.90 in - NW 5.8 mph - N/A   Unknown
1:00 AM 57.4 °F 49.6 °F 75% 29.91 in - NNE 4.6 mph - N/A   Unknown
2:00 AM 56.5 °F 49.8 °F 78% 29.92 in - NNE 3.5 mph - N/A   Unknown
3:00 AM 55.6 °F 50.2 °F 82% 29.92 in - North 4.6 mph - N/A   Unknown
4:00 AM 54.7 °F 50.9 °F 87% 29.93 in - NNW 3.5 mph - N/A   Unknown
5:00 AM 54 °F 51 °F 86% 29.93 in - NNE 2.3 mph - -  
5:00 AM 53.6 °F 51.1 °F 91% 29.93 in - NNE 2.3 mph - N/A   Unknown
6:00 AM 54.5 °F 50.2 °F 85% 29.94 in - North 2.3 mph - N/A   Unknown
7:00 AM 55.4 °F 49.5 °F 80% 29.94 in - North 4.6 mph - N/A   Unknown
8:00 AM 56.3 °F 47.7 °F 73% 29.95 in - NNW 4.6 mph - N/A   Unknown
9:00 AM 57.7 °F 47.8 °F 70% 29.95 in - North 3.5 mph - N/A   Unknown
10:00 AM 60.3 °F 47.5 °F 63% 29.93 in - NNW 5.8 mph - N/A   Unknown
11:00 AM 63 °F 47 °F 45% 29.91 in - ENE 2.3 mph - -  
11:00 AM 62.8 °F 46.8 °F 56% 29.91 in - ENE 2.3 mph - N/A   Unknown
12:00 PM 67.3 °F 40.5 °F 38% 29.89 in - WNW 2.3 mph - N/A   Unknown
1:00 PM 71.4 °F 37.6 °F 29% 29.87 in - NNW 3.5 mph - N/A   Unknown
2:00 PM 71.2 °F 37.8 °F 29% 29.86 in - SW 3.5 mph - N/A   Unknown
3:00 PM 68.4 °F 41.5 °F 38% 29.86 in - WSW 6.9 mph - N/A   Unknown
4:00 PM 70.3 °F 43.3 °F 38% 29.86 in - SW 4.6 mph - N/A   Unknown
5:00 PM 71 °F 43 °F 25% 29.84 in - SW 6.9 mph - -  
5:00 PM 70.7 °F 43.2 °F 37% 29.84 in - SW 6.9 mph - 0.03 in   Unknown
6:00 PM 69.1 °F 42.8 °F 39% 29.84 in - SSW 6.9 mph - N/A   Unknown
7:00 PM 65.1 °F 46.0 °F 50% 29.85 in - SE 5.8 mph - N/A   Unknown
8:00 PM 64.9 °F 45.7 °F 50% 29.86 in - South 4.6 mph - N/A   Unknown
9:00 PM 60.4 °F 48.4 °F 64% 29.87 in - NNE 2.3 mph - N/A   Unknown
10:00 PM 59.9 °F 47.5 °F 64% 29.88 in - SSW 1.2 mph - N/A   Unknown
11:00 PM 58 °F 48 °F 61% 29.88 in - SSE 1.2 mph - -  
11:00 PM 58.1 °F 48.0 °F 69% 29.88 in - SSE 1.2 mph - N/A   Unknown